[ ตารางข้อมูล ] [ Min-Max ] [ วันนี้4 ] [ วันนี้2 ] [ เทียบ3วัน A ] [ เทียบ4วัน B ]   

วันนี้2   [ ◀ ช่วงเก่ากว่า ] [ ช่วงที่ 232 ] [ ช่วงใหม่กว่า ▶ ] [ ล่าสุด ]    [ 3 ชั่วโมง ] [ 6 ชั่วโมง ] [ 12 ชั่วโมง ] [ 24 ชั่วโมง ]   วันนี้2

อุณภูมิตู้ Knockdown4529  ราย 6 ชั่วโมง  ที่วัดได้ ในช่วงวันเวลา 09/03/2026 (08:37) ถึง 09/03/2026 (14:37) 
ความชื้นในตู้ Knockdown4529  ราย 6 ชั่วโมง  ที่วัดได้ ในช่วงวันเวลา 09/03/2026 (08:37) ถึง 09/03/2026 (14:37) 

 
DS18B20SHTC3 
IDDate d/m/Y & Timedata1
สูง
data2
ต่ำ
data3
นอก
temp
pcb
hum
pcb
Time
 883  09/03/2026 14:33:28  31.4  31.3  31.2  31.4  60.9  14:33 
 882  09/03/2026 14:28:46  31.4  31.3  31.1  31.4  60.2  14:28 
 881  09/03/2026 14:24:04  31.4  31.3  31.3  31.5  60.1  14:24 
 880  09/03/2026 14:19:23  31.4  31.3  31.5  31.4  59.6  14:19 
 879  09/03/2026 14:14:41  31.4  31.2  31.0  31.4  59.4  14:14 
 878  09/03/2026 14:09:56  31.4  31.2  31.2  31.3  60.7  14:09 
 877  09/03/2026 14:05:14  31.4  31.1  30.9  31.2  60.3  14:05 
 876  09/03/2026 14:00:34  31.5  31.3  31.4  31.4  61.0  14:00 
 875  09/03/2026 13:55:53  31.6  31.4  31.4  31.3  61.4  13:55 
 874  09/03/2026 13:51:11  31.4  31.2  31.2  31.5  64.0  13:51 
 873  09/03/2026 13:46:29  31.6  31.3  31.2  31.5  66.7  13:46 
 872  09/03/2026 13:41:47  31.6  31.2  31.7  31.7  72.5  13:41 
 871  09/03/2026 13:37:03  31.5  31.4  31.7  31.5  72.2  13:37 
 870  09/03/2026 13:32:20  31.5  31.4  31.6  31.4  71.8  13:32 
 869  09/03/2026 13:27:39  31.4  31.4  31.7  31.4  72.6  13:27 
 868  09/03/2026 13:22:56  31.4  31.3  31.7  31.1  72.0  13:22 
 867  09/03/2026 13:18:15  31.3  31.2  31.7  31.4  71.0  13:18 
 866  09/03/2026 13:13:32  31.2  31.2  31.6  31.1  70.3  13:13 
 865  09/03/2026 13:08:51  31.2  31.1  31.2  31.0  69.2  13:08 
 864  09/03/2026 13:04:09  31.1  31.0  31.4  31.0  68.4  13:04 
 863  09/03/2026 12:59:27  31.1  31.0  31.3  31.1  67.8  12:59 
 862  09/03/2026 12:54:46  31.0  30.9  31.0  30.8  66.7  12:54 
 861  09/03/2026 12:50:04  31.0  30.7  31.2  30.7  65.9  12:50 
 860  09/03/2026 12:45:22  31.3  30.5  31.3  30.7  65.7  12:45 

Data every 5 minute.


ใช้เวลาประมวลผล 0.00502 วินาที